RH
108 107 104 103 100 101 101 100 101 99 100 101 100 96 93 90 95 104 103 103 106 104 102 101 102 102 102 99 99 102 99 93 96 104 107 105 105 103 101 102 97 91 86 81 81 83 87 93 99 103 97 77 72 85 85 85 77 65 59 61 85 96 89 90 95 94 75 52 42 38 41 44 49 57 56 47 33 22 19 20 20 22 25 26 24 22 20 20 23 29 33 30 27 30 32 30 27
106 108 108 104 101 101 100 100 101 99 97 98 99 98 99 93 95 105 104 105 106 103 102 102 102 101 100 100 102 101 97 92 97 104 105 105 105 103 101 105 105 99 95 94 88 77 76 91 102 101 100 76 60 77 78 70 65 59 61 72 92 96 88 88 92 89 69 49 42 37 37 38 42 51 53 46 32 22 19 20 23 26 27 27 25 23 21 20 21 27 34 35 31 30 33 33 30
104 104 105 104 105 105 101 100 101 100 93 95 101 100 102 99 99 104 104 106 105 103 102 103 101 100 100 100 103 99 93 90 95 102 103 105 107 105 99 103 104 96 98 100 94 87 89 99 104 100 102 80 51 61 68 58 54 52 60 75 83 80 76 79 83 83 69 50 42 39 37 37 41 49 54 48 35 24 21 22 27 28 28 27 26 24 23 21 22 26 35 40 35 32 34 36 36
102 101 102 101 105 107 104 102 101 101 95 97 102 101 102 98 99 104 105 106 104 103 102 102 100 101 101 101 102 95 88 85 92 100 103 106 108 104 97 102 100 93 99 102 100 97 98 103 102 101 100 81 53 53 60 54 48 43 50 69 76 68 62 69 77 80 70 52 42 41 40 39 40 48 54 50 38 26 23 26 29 29 28 27 26 25 24 23 22 26 36 43 41 35 34 37 42
99 101 101 100 102 103 103 103 103 105 100 100 102 101 101 94 95 103 104 105 105 104 104 102 101 103 103 101 101 97 88 82 91 101 104 108 107 103 99 103 102 100 100 99 101 88 87 103 102 92 86 71 54 53 55 53 51 44 46 62 68 62 64 77 81 75 63 48 41 39 38 38 40 46 51 49 38 27 25 29 30 29 29 28 27 26 25 24 24 28 37 44 45 40 35 35 41
100 101 101 100 98 94 94 100 105 105 101 101 102 100 101 95 92 100 102 102 104 105 103 102 101 104 107 101 99 100 89 82 93 102 103 104 104 103 102 102 102 105 98 94 101 87 79 97 105 91 74 62 56 57 54 54 52 42 48 59 64 73 82 84 75 63 52 42 38 36 37 38 40 44 48 49 39 28 28 30 30 30 30 29 28 27 27 26 26 31 39 46 48 46 41 37 37
97 98 97 93 89 87 85 92 103 105 104 102 102 100 102 101 94 96 103 103 101 103 101 102 100 102 109 97 92 97 89 84 95 103 101 100 104 105 104 104 102 106 101 97 102 98 87 82 96 101 86 76 72 66 56 59 54 41 48 54 67 91 90 75 64 56 45 37 36 36 38 40 40 43 48 49 38 29 31 32 31 31 31 29 29 28 28 28 30 35 41 47 50 49 46 42 41
91 92 87 83 80 83 83 87 102 106 106 105 101 101 101 104 99 93 103 108 102 103 102 100 100 100 108 97 82 83 82 85 94 101 102 100 106 106 104 104 101 101 99 99 102 104 101 86 90 104 103 99 92 78 64 63 56 46 50 52 75 98 84 68 66 61 46 36 37 37 38 39 40 43 49 48 36 30 32 32 31 31 30 29 29 29 29 30 33 37 42 48 52 52 49 47 46
87 84 76 74 74 78 84 90 104 108 106 108 103 101 102 103 103 94 101 111 103 104 101 97 102 100 105 101 80 71 69 74 84 95 101 101 104 105 100 100 98 91 85 92 104 102 100 97 95 99 97 92 86 74 62 56 51 56 62 64 84 99 83 70 73 68 53 43 41 38 37 38 39 45 50 45 35 31 33 32 31 31 29 29 28 28 29 31 34 39 43 50 54 53 52 50 49
82 77 70 68 70 70 78 87 103 109 106 111 106 105 105 101 101 95 99 109 105 104 100 95 101 100 102 103 85 68 62 62 69 80 92 99 101 102 99 99 99 93 87 89 95 93 96 100 95 94 90 85 83 66 48 42 48 66 77 80 91 99 89 77 78 73 57 50 49 41 36 37 38 45 49 46 41 35 35 33 31 30 29 28 28 28 29 32 35 38 45 53 56 56 55 53 52
83 76 72 67 67 67 72 83 99 107 106 109 106 105 106 99 96 97 99 107 109 105 99 98 100 101 103 104 91 70 62 61 61 65 74 90 99 100 100 99 100 99 98 94 87 89 101 102 96 100 97 97 98 69 41 42 59 76 85 94 99 100 94 83 80 73 56 52 57 47 36 37 39 43 47 48 47 40 36 34 31 30 29 29 29 29 30 32 35 38 45 53 57 58 58 56 55
87 76 74 67 65 68 71 78 91 104 108 107 103 104 107 97 89 94 101 103 108 104 93 96 96 96 103 104 95 75 67 67 65 63 62 79 97 100 100 97 98 101 100 99 93 95 106 93 82 98 103 102 97 65 44 56 75 81 87 103 103 97 93 84 79 72 57 50 61 57 39 37 39 42 46 46 46 42 38 35 32 31 30 31 31 32 32 33 36 39 45 52 57 59 59 59 58
93 82 77 68 66 70 71 74 88 103 105 103 102 107 109 97 84 86 98 101 105 103 88 88 90 87 96 104 97 84 78 79 76 72 65 72 89 97 102 98 96 101 101 97 81 82 104 83 54 72 86 84 77 62 60 74 86 82 86 101 97 91 89 81 77 70 59 49 58 65 44 36 41 43 49 48 46 42 37 35 33 33 33 34 34 34 35 36 37 39 44 50 55 58 60 60 59
99 93 82 71 69 71 70 75 89 99 99 103 104 107 110 101 87 81 90 98 103 108 92 83 89 83 89 102 100 96 90 91 90 80 75 74 79 91 103 101 96 100 102 98 77 69 85 70 43 50 63 68 71 69 71 80 84 77 81 91 87 88 87 79 76 68 62 52 52 62 46 36 42 48 53 51 47 42 38 36 36 37 38 38 38 38 38 38 39 41 44 49 54 57 60 61 61
102 100 89 74 69 70 72 79 93 98 99 106 104 106 112 104 91 83 85 91 98 111 100 80 88 84 84 99 101 101 99 99 100 90 87 84 80 86 99 102 98 101 101 102 95 82 78 67 55 56 65 77 78 69 65 71 74 72 75 79 80 83 81 75 74 66 63 57 50 55 44 36 45 52 56 51 46 42 40 41 42 43 42 42 41 41 42 40 41 43 46 50 53 57 60 63 64
103 103 92 77 71 72 74 84 99 103 101 105 104 104 112 108 95 91 93 94 92 105 104 80 84 86 80 93 96 100 103 100 104 103 97 92 90 91 97 101 99 102 101 101 102 97 93 86 79 76 82 91 85 68 63 68 68 69 69 69 75 79 80 76 70 64 65 61 51 49 41 38 47 53 55 52 47 44 44 47 49 48 46 44 44 45 45 43 43 44 48 51 53 58 62 66 66
102 100 89 78 77 80 84 94 104 106 103 104 105 104 108 111 99 92 100 100 88 94 101 80 78 86 79 81 85 93 102 101 106 107 99 95 102 101 99 102 101 100 100 101 101 100 101 99 96 95 98 101 93 76 72 77 70 66 64 60 64 70 81 85 73 65 66 62 51 46 41 40 48 53 54 53 50 46 45 48 50 50 47 45 47 48 47 45 44 45 49 51 53 59 64 67 67
100 97 86 80 89 94 98 106 107 106 105 102 103 104 103 106 101 92 98 100 88 86 90 78 72 80 80 75 72 75 83 91 100 102 100 102 109 109 105 105 105 103 102 102 100 100 100 99 100 100 101 100 93 81 77 83 75 66 59 52 58 64 75 87 81 69 66 61 49 44 42 43 48 51 53 54 52 49 46 46 48 47 46 47 50 50 47 45 45 46 49 50 53 59 65 67 66
87 91 83 84 101 105 105 108 103 100 102 103 103 103 97 95 98 90 87 89 82 82 82 73 70 76 78 75 71 66 61 72 88 96 103 107 108 107 103 101 102 101 101 103 100 99 99 100 100 101 102 94 82 74 71 76 70 59 55 57 69 73 74 84 85 75 67 58 47 42 43 44 46 51 55 55 53 52 49 47 46 45 46 50 51 48 46 46 46 47 49 50 53 59 64 65 65
50 64 69 85 104 103 105 107 100 96 98 104 103 102 99 96 98 85 75 76 70 74 78 68 67 75 77 73 74 71 64 70 85 95 103 106 105 103 99 98 99 96 94 98 101 100 99 100 102 102 98 81 64 59 58 61 61 60 66 72 78 78 78 86 87 77 66 55 45 41 42 42 46 55 56 54 55 53 51 48 45 45 48 51 50 46 45 46 47 48 49 52 55 59 61 62 63
23 32 44 67 88 91 98 105 105 102 99 104 105 103 101 100 101 84 70 69 64 65 73 70 62 67 79 84 84 78 71 73 79 92 103 104 103 103 101 100 100 101 100 99 100 101 100 102 104 101 93 81 70 67 68 68 71 76 78 76 76 78 80 85 84 73 62 52 45 40 40 41 45 54 54 53 58 55 53 49 44 47 52 52 48 45 45 46 48 49 51 55 58 59 60 61 63
20 20 24 35 55 71 85 97 105 107 104 104 106 105 103 100 100 91 73 66 68 67 71 78 66 54 69 87 90 78 70 68 68 82 98 102 105 106 102 99 100 103 105 102 100 101 101 101 102 99 97 94 89 81 79 80 81 81 75 72 72 75 78 81 76 66 59 52 44 39 41 40 40 48 50 54 62 60 55 51 47 51 55 53 49 47 46 46 49 50 53 56 60 61 62 64 64
23 21 20 19 27 44 64 84 99 106 105 102 105 105 103 102 102 95 79 68 71 71 71 83 76 57 57 67 77 76 71 66 62 76 98 106 104 102 101 102 103 101 100 101 102 102 101 101 100 99 100 100 100 96 90 88 88 82 75 72 71 72 76 73 66 61 59 51 42 39 43 42 40 46 50 55 65 65 58 52 52 56 57 55 53 51 49 49 51 52 54 56 59 62 64 66 66
26 24 22 19 18 23 37 59 84 103 106 101 102 104 101 102 104 95 81 74 75 74 72 81 87 81 67 52 56 69 74 73 69 82 102 109 105 99 102 105 102 100 100 102 103 103 102 101 99 101 103 99 96 94 89 89 93 89 81 76 72 72 70 63 59 59 55 49 41 41 45 44 43 49 51 54 67 70 61 54 57 61 60 58 56 54 51 52 54 53 53 54 58 64 67 67 66
27 25 23 22 20 18 21 31 54 84 103 104 100 102 102 101 103 99 90 85 82 80 76 76 86 98 92 64 54 63 77 85 81 86 97 102 105 101 103 104 100 101 103 101 101 102 102 100 99 99 98 88 77 67 65 74 86 92 91 83 74 67 60 55 54 53 51 46 43 46 48 45 45 49 50 55 67 71 62 56 64 68 64 63 59 55 54 55 57 56 53 53 57 64 69 69 67
28 27 26 24 22 21 20 20 27 49 80 102 104 100 101 101 101 100 100 96 88 83 76 71 74 89 98 81 67 68 81 92 80 80 89 91 96 96 99 104 104 105 104 102 100 100 102 100 97 90 78 68 64 56 48 56 67 78 86 79 68 57 48 47 49 49 49 47 48 52 50 46 48 50 51 58 66 68 62 60 72 76 70 68 64 57 56 57 60 59 54 54 57 65 70 70 69
29 28 29 27 25 23 22 21 19 24 43 74 99 104 101 101 102 100 100 99 92 85 76 71 69 76 88 80 66 65 80 95 80 72 79 78 81 88 97 105 109 108 105 104 101 100 102 101 100 92 79 71 78 72 50 47 54 59 65 60 53 46 41 44 48 48 49 49 54 56 52 49 51 52 56 63 67 66 62 62 74 83 79 76 70 60 57 59 62 63 58 56 59 65 70 71 69
33 30 30 29 27 25 24 23 22 21 21 35 65 92 104 102 99 98 101 99 96 95 85 76 75 76 84 81 64 53 66 93 90 72 68 66 65 72 86 95 100 106 104 101 101 102 101 101 103 103 95 88 95 92 66 53 54 53 53 49 46 44 44 48 51 50 50 52 57 57 53 50 51 56 64 69 70 67 63 61 70 84 87 83 75 62 57 60 66 68 63 60 62 65 70 71 69
37 34 33 31 29 28 26 24 23 22 20 20 29 55 86 99 99 101 103 101 99 101 91 79 81 84 87 88 75 54 52 77 85 70 67 70 62 60 74 80 85 96 97 94 97 101 103 104 104 103 100 96 100 102 83 67 64 63 58 51 50 51 51 52 51 48 48 52 55 56 52 48 51 59 67 72 73 67 62 62 68 81 89 87 78 64 57 62 72 75 70 65 65 66 69 69 68
39 38 38 35 32 29 27 27 25 24 22 22 19 24 47 73 96 108 106 102 101 102 92 75 75 88 94 94 89 72 55 58 65 65 73 81 72 63 72 77 79 88 91 92 95 97 103 107 106 103 102 99 100 103 92 74 69 71 67 58 54 53 51 49 44 43 47 52 54 54 52 50 53 61 68 73 73 66 61 62 70 83 90 86 77 64 58 63 76 82 77 72 69 68 68 68 67
38 38 40 41 38 33 30 29 28 27 25 23 21 17 22 36 63 93 106 104 100 101 97 77 66 79 96 99 96 89 73 58 53 58 71 82 78 69 73 75 76 83 87 89 91 94 102 107 107 102 100 101 100 104 101 84 77 75 66 58 52 46 43 41 38 40 46 52 56 57 56 56 59 63 70 72 70 64 60 62 71 85 88 81 73 65 61 66 79 87 82 76 72 69 69 68 67
34 36 38 41 43 40 36 32 29 29 28 26 23 18 19 22 29 54 84 102 105 102 99 84 66 68 86 101 103 99 91 75 60 54 57 67 69 67 71 74 78 87 89 86 84 87 95 104 108 103 99 101 102 105 102 88 83 76 61 50 44 38 35 35 36 39 47 57 62 61 60 61 62 65 68 68 67 62 59 62 72 85 84 76 71 68 64 67 81 90 83 77 74 72 71 70 70
31 33 35 38 43 44 41 37 32 30 27 27 25 20 21 24 23 26 44 72 97 107 102 84 68 63 71 89 102 105 102 92 78 63 54 55 57 60 68 71 78 83 81 83 82 81 86 95 105 106 101 101 102 102 95 82 75 68 56 45 38 34 33 35 37 41 53 64 65 63 61 61 62 64 64 66 66 61 60 65 75 84 81 75 74 71 66 68 82 89 81 77 76 75 75 75 76
27 30 31 34 38 40 39 38 36 32 27 25 24 23 23 24 26 25 26 36 59 88 102 89 68 60 61 73 89 101 105 99 90 81 74 67 59 59 65 72 82 82 72 69 68 68 73 77 88 103 106 101 99 99 97 92 85 76 63 46 34 33 36 38 41 48 59 65 66 63 61 61 62 63 64 67 64 60 63 68 77 84 81 79 77 73 69 70 84 90 82 78 78 78 80 80 79
23 24 25 28 31 34 36 37 35 32 30 27 23 23 26 29 28 28 28 27 30 48 75 84 72 61 57 61 73 89 100 103 99 96 97 93 81 69 66 71 82 89 86 78 69 64 65 67 77 96 108 104 100 100 100 102 101 95 79 56 39 38 43 44 46 54 60 65 68 65 62 63 64 65 68 67 62 63 67 70 79 84 81 80 76 73 70 72 87 92 86 83 81 81 82 81 80
21 20 21 24 27 30 34 37 35 32 30 31 29 25 27 32 34 31 30 30 29 30 41 57 64 63 60 57 63 75 86 97 104 104 105 109 104 86 72 68 67 76 92 97 91 86 85 86 87 93 100 100 101 104 103 104 106 102 88 67 53 50 52 50 51 59 64 67 71 69 65 64 65 68 66 61 62 68 69 71 79 84 82 79 74 73 69 73 89 93 90 91 86 84 84 81 81
20 20 20 22 25 28 32 35 35 32 29 31 33 32 29 31 37 39 34 31 32 33 34 37 43 51 58 59 60 67 75 86 101 108 106 108 110 97 84 76 63 63 82 95 95 97 101 103 101 99 94 89 94 103 105 105 108 102 86 70 61 59 58 54 57 66 68 70 77 77 69 66 68 68 61 60 66 70 71 74 79 83 82 77 74 73 70 77 92 96 97 96 89 86 82 79 82
19 20 20 20 23 28 30 31 33 31 28 29 32 33 33 33 35 39 40 36 32 33 37 37 33 33 43 54 58 65 73 81 94 103 104 104 106 100 92 88 77 69 78 89 93 96 100 102 105 106 100 89 86 92 97 99 107 106 95 81 70 67 66 63 68 72 71 75 82 80 72 70 72 69 65 66 69 71 76 80 82 84 82 76 74 72 72 81 92 98 101 97 90 85 80 78 82
19 20 20 21 23 27 29 28 29 30 27 28 31 30 32 36 35 36 38 39 38 35 36 40 39 30 28 37 49 60 72 81 89 94 96 99 103 102 95 93 94 92 88 87 87 88 92 97 104 106 103 98 89 84 85 87 94 101 105 100 87 79 77 77 78 73 72 82 85 78 71 71 74 74 73 74 73 75 82 88 89 87 83 77 71 70 77 86 93 101 103 99 93 86 81 79 82
18 19 20 22 23 24 25 26 26 27 24 27 30 27 29 35 36 37 37 38 42 42 39 39 43 40 29 25 32 46 64 80 90 91 90 93 98 100 96 94 101 108 105 97 92 91 91 96 105 107 104 105 96 84 79 79 83 91 96 95 91 88 86 85 84 79 80 88 86 77 70 70 75 77 78 79 78 80 90 97 97 91 83 75 68 74 92 98 99 105 104 103 97 86 81 80 83
16 18 20 22 23 22 21 24 25 24 22 25 29 26 26 31 34 37 39 38 40 46 46 41 42 45 38 26 22 29 45 70 91 96 91 88 89 92 96 99 104 108 106 105 105 104 102 103 107 107 105 107 97 80 76 79 85 89 86 81 79 81 82 81 83 84 87 86 82 78 73 73 77 78 80 81 81 87 96 102 102 91 80 72 66 75 93 98 100 104 105 106 98 84 79 81 83
13 15 18 20 21 20 19 22 23 22 22 23 27 25 24 29 31 33 38 39 39 43 48 48 45 46 45 35 23 21 27 46 76 95 96 90 87 89 93 98 104 107 103 103 108 109 108 109 107 105 108 106 91 78 77 82 87 89 86 80 75 77 81 81 80 82 82 80 79 78 77 79 80 80 82 84 88 95 100 104 102 88 76 73 68 69 73 77 90 102 107 105 94 81 78 79 78
12 12 15 16 16 17 18 18 19 20 22 23 24 22 23 30 30 29 34 38 39 42 46 51 52 50 49 45 32 24 21 26 47 75 94 94 89 89 88 90 97 104 104 104 108 108 106 106 104 106 110 100 84 80 84 88 91 87 83 81 77 81 85 83 81 81 79 77 77 78 80 82 82 83 86 92 98 101 103 105 99 85 76 74 70 69 68 72 88 103 105 98 86 76 71 70 69
11 12 12 11 12 14 15 15 15 17 20 23 23 20 22 29 31 29 33 36 38 43 46 50 56 56 55 54 44 30 23 22 26 44 72 89 93 92 89 88 95 103 109 109 107 104 103 104 101 104 108 97 84 86 91 95 94 83 77 75 72 77 80 76 76 77 75 75 77 79 83 85 87 89 92 99 102 104 106 104 95 84 77 75 73 71 72 79 94 103 98 85 73 67 63 62 62
8 10 11 11 11 12 12 13 12 13 16 19 21 19 19 25 31 31 32 35 36 41 47 51 57 61 61 61 55 41 29 23 21 24 42 66 86 97 95 92 97 106 112 110 104 102 104 105 102 103 105 97 87 87 92 96 89 77 73 70 68 76 82 76 73 75 76 77 80 82 86 92 95 95 98 102 103 105 108 103 93 84 78 77 74 71 73 79 90 90 78 65 59 59 60 58 54
8 8 8 9 10 11 12 12 11 11 12 13 17 18 15 20 31 34 32 33 35 37 43 49 56 61 64 66 65 55 39 27 23 21 25 38 61 86 99 97 98 105 110 108 104 104 104 103 102 102 100 96 90 89 93 93 87 82 75 66 73 88 89 79 76 78 78 78 79 84 93 101 102 100 101 103 105 107 107 100 92 86 82 76 72 72 70 70 73 65 59 62 61 57 58 54 45
11 10 8 7 7 9 10 11 11 10 9 10 14 17 13 14 26 34 33 31 32 35 38 43 52 60 65 69 71 65 51 34 25 22 22 25 35 58 82 93 97 98 100 104 105 104 103 101 100 99 94 93 94 95 96 96 98 97 81 73 90 102 91 80 79 81 79 77 79 88 100 105 102 101 102 103 106 105 102 97 93 90 85 77 72 66 56 59 66 64 76 88 72 55 56 50 37
9 10 10 9 7 6 7 8 9 9 8 9 13 15 13 11 18 29 33 32 31 33 37 40 46 55 63 69 75 73 60 43 31 24 23 25 25 32 49 71 90 93 87 89 95 100 102 103 102 97 93 93 94 94 97 103 109 102 85 87 106 107 93 85 86 85 82 80 85 94 101 101 99 101 102 103 103 100 98 96 94 93 87 78 68 49 45 68 87 92 98 88 62 55 56 43 30
7 7 8 9 9 8 6 6 6 7 7 10 13 14 11 9 13 22 31 35 34 32 36 40 42 49 58 65 73 77 69 53 39 28 25 26 26 26 28 41 66 83 85 84 90 101 105 105 102 98 98 99 97 95 99 106 105 90 81 94 109 108 100 95 92 89 85 85 89 92 93 95 98 100 99 100 100 98 97 95 93 93 86 78 61 41 56 89 104 104 88 60 52 61 52 33 27
6 6 6 7 7 8 8 7 7 6 6 8 11 11 9 8 10 17 25 32 35 31 32 38 41 44 52 60 68 76 77 64 47 35 28 26 27 27 25 25 37 59 78 86 94 104 107 103 100 100 102 103 101 99 102 108 99 80 76 90 103 107 102 96 92 88 84 84 85 86 90 95 97 95 94 96 98 98 96 92 88 83 79 74 57 55 85 104 96 86 69 54 60 60 40 28 26
5 5 5 6 6 6 6 7 7 7 6 6 7 6 7 8 8 12 17 24 30 31 30 34 40 43 48 55 60 69 76 71 56 42 31 28 28 30 28 24 23 33 53 72 88 100 103 98 98 102 103 101 102 102 104 108 96 79 79 88 97 104 101 95 92 86 82 81 83 88 93 94 92 89 90 95 98 96 90 81 72 65 62 58 46 53 79 79 65 69 72 67 62 47 31 28 25
4 4 4 5 6 5 4 4 5 6 6 6 7 5 5 7 8 9 12 16 22 28 29 31 37 41 45 52 57 61 70 73 65 50 37 30 30 31 30 26 22 23 30 45 65 83 93 95 100 104 103 102 103 101 102 105 91 80 86 91 97 106 106 100 94 86 82 83 86 91 92 90 88 88 92 97 94 85 74 62 53 47 45 45 40 41 48 46 52 74 81 67 50 36 29 28 27
3 3 3 4 4 4 4 5 5 5 5 6 7 7 6 5 6 7 8 11 15 21 26 29 32 37 40 48 55 59 64 71 70 58 44 36 32 32 32 27 24 23 24 27 38 56 74 89 101 106 105 104 102 101 104 101 88 83 88 91 99 108 105 102 100 94 90 90 90 91 89 87 87 92 96 92 78 64 52 43 38 35 35 37 36 40 55 68 72 75 69 54 40 33 30 31 32
3 3 3 2 3 4 4 5 5 4 4 5 6 6 7 7 7 7 7 8 11 14 21 26 28 32 35 41 52 57 59 64 68 63 51 40 34 34 34 31 26 25 26 26 26 33 45 63 80 94 103 104 101 103 104 92 80 81 87 94 103 107 102 101 102 100 98 97 94 91 89 89 91 94 86 69 52 42 35 31 30 32 33 31 33 53 88 101 84 65 55 45 36 34 35 37 38
3 3 3 2 2 3 3 3 4 4 4 4 5 4 6 7 8 9 6 6 9 11 15 21 25 29 31 35 46 53 56 59 62 62 57 46 38 36 37 35 30 27 29 30 28 28 29 36 48 63 83 98 105 105 93 77 70 76 88 98 105 106 105 103 102 102 101 99 96 95 94 91 84 73 56 40 34 30 28 29 30 31 31 30 39 64 88 87 70 55 46 39 36 39 42 43 42
3 3 3 3 3 2 2 3 2 4 4 4 5 4 4 5 7 9 7 5 7 9 12 16 21 26 27 30 40 47 52 57 59 60 59 53 43 39 41 40 35 30 30 33 32 30 28 28 31 38 55 79 97 95 80 68 69 79 92 102 106 108 108 104 101 101 100 99 99 96 86 72 56 42 32 29 28 28 28 30 30 31 32 33 40 53 62 61 55 49 42 41 45 50 51 49 48
3 3 3 3 3 2 2 2 2 3 3 4 4 4 3 4 5 7 9 8 7 7 9 12 16 22 24 27 35 42 47 52 56 57 57 56 49 43 43 44 41 34 32 35 35 33 32 30 31 33 39 52 65 66 60 59 65 75 87 96 101 103 99 94 94 94 94 92 84 71 55 41 32 28 27 28 28 28 29 30 31 32 32 34 40 48 54 54 50 46 47 53 58 59 58 55 54
3 3 3 2 2 3 2 2 2 2 2 3 3 4 4 4 4 5 7 9 8 7 7 9 12 17 21 24 29 37 43 48 53 55 55 55 53 48 46 47 46 39 34 35 35 34 35 35 35 37 37 37 38 38 37 40 45 52 61 69 74 75 70 68 69 69 66 59 48 37 30 27 27 28 29 29 29 29 29 31 32 32 37 48 57 61 58 52 49 53 59 63 63 60 57 56 55
Wind_Speed
60 62 63 63 62 63 64 64 65 65 65 64 63 60 58 57 56 55 54 53 54 54 54 53 52 50 48 47 46 45 44 43 42 41 40 39 38 36 34 33 32 29 28 26 24 21 16 16 22 25 26 26 24 22 22 22 22 22 21 21 20 20 21 22 24 25 26 26 25 25 25 26 26 26 27 26 25 25 26 26 26 26 26 26 27 27 28 27 26 25 22 21 19 17 18 19 20
60 61 62 63 62 64 64 64 65 65 65 64 62 60 59 58 56 57 55 54 55 55 55 54 52 50 49 47 46 45 45 43 42 41 39 38 37 35 33 32 31 26 23 23 22 20 17 20 25 25 28 29 26 24 22 22 21 21 21 21 20 21 23 24 25 26 26 26 25 25 25 25 26 26 26 26 25 26 26 25 25 25 25 27 28 28 28 28 27 26 23 21 19 18 18 19 20
59 60 61 61 62 63 64 64 65 65 64 62 62 60 59 59 57 57 57 55 55 56 55 54 52 50 48 46 45 46 45 43 41 40 39 38 36 35 33 32 31 24 22 22 21 19 17 23 26 25 28 30 28 26 24 22 21 21 21 22 22 22 23 25 26 27 27 27 26 26 26 26 26 26 26 26 25 26 26 24 24 24 26 28 28 28 28 28 27 26 24 21 19 19 18 19 20
57 59 59 60 61 63 63 63 64 65 63 61 62 61 60 60 58 58 57 56 56 56 55 53 52 50 46 43 43 44 44 42 41 40 39 38 36 35 33 31 30 27 26 27 25 23 19 21 27 26 28 30 30 29 27 25 23 22 23 23 24 24 25 26 27 28 28 28 28 28 28 27 26 26 26 26 26 25 25 24 24 25 27 28 29 29 28 28 28 27 25 22 20 19 18 18 19
57 58 59 59 60 61 62 62 62 62 61 61 63 62 61 61 58 57 57 57 57 57 56 54 53 50 45 42 41 40 41 41 40 38 38 38 36 35 32 29 30 31 31 32 30 29 24 22 29 32 31 32 32 32 31 29 27 26 24 23 25 26 26 27 27 28 28 28 29 29 28 28 26 26 26 26 25 25 24 23 24 25 27 28 29 29 28 28 28 27 25 23 21 20 19 18 19
57 59 59 60 60 60 59 58 60 60 60 61 61 61 61 61 58 57 57 57 57 57 56 55 54 52 48 43 40 37 38 39 39 37 37 37 34 34 32 29 30 35 35 33 31 32 29 25 27 30 32 32 31 32 32 31 30 27 25 24 26 26 26 26 26 27 28 28 28 28 27 27 26 25 25 26 25 24 23 22 23 25 26 28 29 29 28 28 28 26 25 24 22 21 20 19 20
58 59 60 60 59 58 56 55 56 58 59 60 60 61 61 61 59 57 56 56 57 57 56 55 54 53 51 47 42 38 37 37 37 36 36 35 32 32 32 31 32 35 36 33 32 32 33 31 28 27 28 30 31 32 32 30 29 27 26 27 27 26 25 25 25 26 26 26 26 26 26 26 25 24 25 25 24 23 22 21 22 24 25 27 29 29 28 28 27 27 26 24 23 23 22 21 21
58 59 59 59 57 55 54 52 53 56 57 58 59 60 61 60 59 57 55 56 57 56 55 53 52 53 53 51 47 42 39 38 37 36 35 34 32 31 31 32 33 34 34 34 33 32 34 35 35 32 30 31 31 32 33 32 29 28 28 28 28 26 25 25 25 25 25 25 25 25 25 25 25 24 24 24 24 22 22 22 22 23 25 26 28 29 28 28 27 27 26 25 24 24 24 23 23
59 59 58 57 55 53 52 52 52 54 55 57 58 60 61 60 59 56 55 56 57 56 55 52 50 53 53 53 51 47 44 41 39 37 35 34 32 31 31 31 32 32 31 32 33 34 33 33 35 36 34 34 33 34 35 34 31 29 28 28 28 27 26 26 25 25 25 26 26 26 26 25 24 23 22 22 23 22 22 22 23 24 25 26 27 28 28 28 27 27 26 25 25 26 25 25 25
59 59 57 56 54 52 51 51 52 53 54 57 58 59 61 60 59 57 54 55 57 56 55 52 49 52 54 53 53 50 46 44 42 40 37 35 34 32 32 32 32 32 31 31 31 32 31 30 30 31 33 34 34 35 34 33 31 30 29 28 29 28 27 26 26 26 27 27 27 27 27 26 24 23 21 21 21 22 22 23 23 24 25 26 27 28 28 27 27 27 26 25 26 26 27 26 26
60 58 57 56 53 51 50 51 52 53 55 57 57 58 60 59 59 58 55 55 56 57 56 53 51 51 53 54 54 51 47 45 44 42 40 38 36 35 35 36 36 35 35 33 29 29 31 31 29 26 28 32 34 34 32 31 31 30 30 30 30 29 28 27 26 27 28 28 27 27 29 27 25 24 22 21 21 22 22 23 24 24 25 26 27 28 29 28 27 27 26 25 26 27 27 27 28
60 58 58 56 53 51 51 51 51 53 55 56 55 57 61 60 59 57 56 56 56 57 56 55 54 51 52 55 54 51 47 45 44 43 42 40 39 38 38 38 38 38 38 38 34 32 35 37 35 29 28 31 33 34 33 32 32 32 32 31 31 30 29 28 28 29 29 28 27 28 30 29 26 24 23 23 23 24 25 26 26 25 25 26 27 29 29 29 28 27 26 25 26 27 28 28 29
60 59 58 56 53 53 52 51 52 54 54 54 56 58 61 60 59 57 57 57 55 56 56 55 55 52 51 55 54 52 48 45 44 43 43 43 42 40 40 39 39 39 40 42 42 39 39 40 38 36 34 34 36 36 35 35 34 33 31 30 30 30 29 29 30 30 30 30 29 29 31 29 27 25 24 24 25 26 27 28 27 26 25 27 28 29 30 30 29 28 26 26 26 27 28 29 29
60 60 59 56 54 54 52 51 53 54 53 55 59 59 60 60 59 58 57 58 56 56 58 56 55 53 51 53 55 54 49 46 45 45 45 46 45 44 43 42 42 41 40 43 44 43 44 44 42 41 40 39 38 37 37 36 36 33 30 29 30 30 30 30 31 32 32 31 30 31 32 30 27 25 24 24 25 26 27 27 26 25 26 28 29 30 31 30 29 28 27 26 26 27 29 29 30
62 62 61 56 54 53 51 51 53 54 53 57 61 61 61 61 60 59 58 58 58 57 59 57 54 53 52 53 55 55 52 47 47 47 47 48 47 46 45 45 45 44 43 42 43 44 46 47 45 44 42 40 39 39 37 37 35 32 30 29 29 30 31 32 33 34 33 32 32 31 32 30 26 24 24 24 24 25 25 25 25 25 27 29 30 31 32 31 30 29 28 27 27 28 29 30 31
64 64 62 56 53 52 52 52 53 54 54 58 62 64 63 62 62 60 59 59 59 58 59 57 53 53 54 55 55 55 53 49 47 47 48 48 49 50 48 47 46 46 46 45 44 44 45 46 47 46 44 42 41 40 39 37 35 32 30 30 30 32 33 35 35 35 33 33 33 32 32 29 25 24 24 25 25 25 24 24 24 25 27 29 31 32 32 32 31 30 29 28 28 28 29 30 32
67 66 62 56 53 53 52 53 54 54 55 60 64 66 65 64 64 62 61 61 60 59 59 57 53 52 54 56 55 55 54 51 48 47 47 48 49 51 50 48 47 46 46 47 48 48 48 49 50 49 47 45 43 42 40 38 37 35 33 33 34 35 36 37 37 36 35 35 34 32 31 28 25 25 26 26 26 26 25 25 25 25 27 29 31 32 32 32 32 31 30 29 29 29 30 31 32
70 68 63 58 55 54 54 55 56 57 58 61 64 66 66 65 66 65 65 63 61 60 59 57 54 53 55 56 57 56 55 53 51 48 47 49 50 50 50 48 47 47 46 46 49 51 51 52 52 51 49 47 45 43 42 41 40 38 37 38 39 40 40 39 39 37 37 38 34 31 30 27 26 27 27 27 27 27 27 26 25 26 27 29 30 31 31 32 32 32 31 31 30 30 31 31 33
71 69 65 60 58 57 57 58 59 60 60 61 63 66 66 66 69 70 67 64 62 59 58 58 56 56 57 57 58 58 56 54 53 49 49 49 49 50 50 49 48 48 47 46 48 50 51 51 52 51 50 49 47 45 43 43 41 40 41 42 42 42 42 41 40 39 40 38 33 30 29 27 27 27 28 28 27 27 27 27 27 27 28 29 29 30 31 32 33 33 33 32 31 31 32 33 33
72 71 67 62 61 61 60 60 61 61 60 61 63 65 66 67 71 71 66 64 62 58 58 59 58 58 58 58 58 59 57 56 54 51 51 51 48 47 49 50 50 49 48 47 47 49 51 52 53 53 52 50 47 44 43 44 43 44 44 44 43 42 42 42 41 41 40 36 31 29 28 27 27 27 28 28 27 27 28 28 29 28 28 28 29 30 31 33 34 34 33 33 32 32 32 33 34
73 71 68 65 65 65 63 62 62 62 62 62 63 65 67 69 71 69 66 64 61 59 61 62 61 60 58 58 60 60 60 59 56 54 53 53 50 47 46 47 47 48 48 47 47 48 51 54 55 54 53 50 46 45 45 45 44 44 44 44 43 42 42 42 42 41 39 35 31 29 28 28 28 28 28 28 28 27 28 29 29 28 28 28 28 30 32 33 34 35 34 34 33 33 33 34 34
73 72 70 68 67 67 67 66 65 64 64 64 65 67 68 70 70 69 66 63 60 62 65 65 63 60 59 61 62 61 61 60 58 55 54 55 54 51 47 46 46 49 49 48 49 51 51 53 54 51 49 47 46 45 44 43 43 42 43 42 42 42 42 42 42 40 37 34 32 30 29 29 30 31 30 29 29 28 29 30 30 28 27 28 29 30 32 34 35 35 35 34 34 34 34 34 35
70 71 71 70 69 69 69 68 67 66 66 66 67 67 68 70 69 69 66 62 61 65 66 65 64 62 61 63 62 60 60 60 59 57 57 57 58 55 51 49 49 49 50 50 51 53 54 54 52 47 42 41 41 42 41 41 41 41 42 42 42 41 41 41 40 38 36 34 32 31 31 31 31 32 31 30 30 30 30 31 30 28 28 29 30 31 33 35 36 36 36 35 35 35 35 35 35
69 69 70 71 71 71 70 70 70 70 69 68 68 68 69 69 69 68 65 61 63 66 66 66 67 66 65 64 61 59 60 61 61 60 60 59 58 56 56 53 50 48 49 49 50 51 53 53 50 45 42 41 40 39 39 39 41 41 42 42 42 41 41 40 39 38 36 35 33 32 32 32 32 32 30 29 31 32 32 32 30 27 28 31 32 33 34 36 37 37 36 36 36 35 35 35 36
70 69 69 69 70 72 72 72 72 73 73 72 71 70 70 70 69 67 63 62 66 68 68 68 69 69 68 66 63 61 61 63 64 63 62 61 59 57 58 55 51 51 51 49 48 47 48 49 48 45 44 44 43 42 39 39 40 42 42 43 43 42 41 40 39 37 36 35 34 33 33 32 32 32 30 30 32 33 33 33 30 28 30 32 33 34 35 37 38 37 37 37 36 36 35 36 36
72 70 69 69 69 70 73 74 75 76 75 75 75 74 73 71 70 66 63 65 69 70 70 70 69 69 69 69 67 65 64 66 67 65 64 63 60 58 59 57 53 54 54 52 49 46 45 46 47 47 47 47 46 45 42 40 41 42 43 43 43 42 41 40 38 37 36 35 34 34 33 32 32 31 30 31 33 34 34 33 30 30 32 33 34 35 36 38 38 38 37 37 37 37 36 36 36
74 73 71 71 70 70 72 74 77 78 78 78 78 77 75 74 70 65 65 68 70 70 70 70 69 68 69 70 70 68 66 68 68 67 66 64 62 60 61 60 56 56 56 55 53 49 47 46 46 46 46 46 45 46 45 43 42 42 42 42 43 42 41 39 38 37 36 35 35 35 34 32 32 31 31 33 34 35 35 33 31 32 34 35 35 36 37 39 38 38 38 38 38 38 37 37 37
78 76 75 74 72 72 72 74 77 79 80 80 80 80 78 76 70 64 68 71 72 73 71 70 69 68 68 70 70 68 66 68 70 68 65 64 64 63 63 62 58 58 59 58 56 52 50 50 49 46 44 45 44 45 46 45 44 43 42 42 42 42 41 40 39 38 37 36 36 36 34 33 32 32 34 35 36 37 36 35 33 34 35 36 37 37 38 39 39 38 38 39 39 39 38 38 38
81 80 79 78 76 75 74 74 77 79 81 82 83 81 78 75 67 65 73 77 77 77 74 72 70 69 69 70 71 69 67 69 70 66 63 63 65 64 63 62 60 60 59 58 57 54 52 52 52 48 44 45 46 45 44 44 43 43 42 42 42 43 43 42 40 39 38 37 36 36 35 34 33 34 36 37 38 38 37 36 35 35 36 37 37 38 39 40 40 39 39 39 40 40 39 39 39
85 83 82 81 80 78 76 76 77 79 80 82 85 82 76 72 68 71 79 80 81 80 76 74 71 70 70 69 71 71 69 69 68 65 63 63 65 65 64 63 61 60 59 57 57 55 53 53 53 50 46 46 48 47 45 44 43 42 42 43 43 44 43 42 41 39 37 36 36 37 36 35 35 35 37 39 39 39 37 36 36 35 36 36 37 39 40 41 41 40 40 40 40 40 40 40 40
86 86 85 85 84 82 80 80 80 80 81 82 84 80 74 72 73 78 82 81 83 82 78 77 73 71 70 70 70 71 70 69 68 67 66 65 65 64 64 62 60 59 58 56 56 55 54 53 53 52 49 48 49 47 44 44 44 44 44 44 43 43 42 42 40 38 36 36 37 37 37 37 36 36 38 39 39 39 37 37 37 36 35 36 37 40 41 41 42 41 40 41 41 41 41 41 41
85 86 87 87 88 85 84 85 84 84 82 82 82 77 73 75 78 82 83 82 84 83 81 79 76 73 71 70 70 70 70 69 69 69 68 67 66 64 62 61 60 59 58 56 54 54 53 53 53 53 51 49 49 47 45 44 45 46 47 46 44 43 42 41 39 36 35 36 37 38 38 38 37 37 38 38 38 38 37 38 37 36 36 37 38 40 41 42 42 41 41 42 41 41 41 42 42
86 86 87 88 91 90 89 89 88 87 84 83 80 74 72 77 80 83 84 84 85 84 84 82 79 76 72 71 70 69 69 69 69 68 68 68 67 66 64 63 61 60 58 55 54 53 53 52 52 54 53 51 50 49 47 45 44 45 46 46 45 43 41 40 39 36 36 37 38 38 39 38 37 37 37 37 37 37 38 38 37 36 37 38 40 41 42 42 42 42 43 43 41 41 42 42 42
90 89 88 88 90 91 91 91 89 88 86 84 80 73 73 77 80 83 84 85 85 85 85 84 81 79 75 72 71 69 68 68 68 68 69 70 70 69 69 67 66 63 60 57 55 54 53 52 51 53 54 52 50 49 47 44 43 44 45 45 44 43 42 42 40 38 37 37 38 38 38 36 36 36 37 37 37 37 38 38 36 36 38 39 41 42 42 43 42 43 43 42 40 41 42 42 42
93 91 89 88 88 89 90 92 90 89 88 85 81 75 74 78 80 83 84 84 84 84 86 86 84 81 78 75 73 71 69 67 67 68 70 72 73 72 72 70 68 66 63 61 59 56 55 54 52 52 54 55 53 51 48 44 43 44 45 46 45 44 45 45 43 39 37 37 38 38 37 36 36 36 36 36 37 37 38 37 36 37 38 40 42 43 43 43 43 43 43 41 41 41 42 42 43
92 91 90 88 88 88 89 91 91 91 90 87 84 79 78 81 82 83 85 84 83 83 85 87 86 83 80 78 75 73 71 68 68 69 70 72 74 74 74 72 68 65 64 64 62 61 60 58 56 55 56 56 55 54 51 48 47 46 46 46 45 46 48 47 45 40 38 38 39 38 37 36 36 36 36 37 38 38 38 37 36 38 39 41 42 43 43 43 43 43 43 41 40 41 42 43 44
91 91 91 90 90 90 90 91 92 92 91 89 87 84 83 84 84 85 86 85 83 82 83 86 87 86 83 81 77 75 73 70 70 71 71 70 71 72 73 73 70 66 65 65 64 63 63 61 60 59 58 57 57 57 54 51 49 48 46 45 46 47 49 48 45 41 40 40 40 40 39 38 37 37 37 38 39 39 38 37 37 39 40 42 43 43 43 43 43 44 43 40 40 42 43 44 45
90 91 92 92 91 92 93 93 94 94 92 90 91 89 86 87 88 88 87 85 83 82 83 85 87 88 86 83 80 77 75 74 73 73 71 69 68 68 69 70 70 68 68 68 66 65 64 62 62 62 60 59 59 58 55 51 50 49 47 46 45 47 48 47 44 42 41 42 42 43 42 41 40 39 39 40 41 40 39 38 38 39 41 43 43 43 44 43 43 43 42 40 40 42 44 45 45
88 90 91 92 92 93 95 95 96 97 94 91 93 92 89 89 90 90 89 86 84 84 85 85 86 88 87 84 81 78 77 76 75 74 72 70 68 67 67 66 66 68 70 69 68 66 64 62 62 63 62 61 61 60 57 53 51 51 50 48 47 47 47 46 44 43 43 44 45 45 45 44 42 42 42 42 42 41 41 39 39 40 42 42 43 44 44 43 41 40 40 40 41 44 45 46 46
87 89 90 91 93 94 95 96 98 98 95 93 94 93 90 91 93 92 91 88 86 86 87 86 86 87 86 84 83 81 79 77 76 76 74 72 69 67 65 63 63 65 67 67 66 65 63 62 63 63 63 63 63 61 58 54 52 52 53 51 49 49 49 47 46 45 45 46 47 47 47 45 44 44 44 44 43 42 41 40 40 41 41 41 42 41 39 38 37 36 38 41 44 46 46 47 47
85 87 89 90 93 94 94 96 98 98 95 94 96 94 90 92 95 95 94 92 89 89 88 87 86 86 86 85 84 82 80 78 77 77 76 74 71 68 66 65 63 63 62 62 63 64 63 64 64 64 64 65 64 61 58 56 54 54 53 52 51 51 51 50 49 47 48 49 49 49 47 46 45 45 45 45 44 43 42 41 41 41 41 41 41 36 33 33 34 36 41 45 47 48 47 48 48
85 86 88 90 92 93 93 95 97 97 95 95 97 96 91 92 95 95 95 94 91 91 90 88 87 87 87 87 84 82 81 80 78 78 78 76 73 71 69 67 64 62 61 61 62 63 64 64 64 64 64 65 63 60 58 57 56 55 54 52 51 52 53 52 51 50 51 51 51 49 47 46 46 45 45 45 44 43 42 41 41 41 41 42 42 39 37 39 40 43 46 47 49 49 49 49 48
82 84 86 90 92 92 92 93 95 95 95 96 97 95 90 91 93 93 95 95 93 93 92 89 88 88 88 88 85 83 82 81 80 80 79 78 76 74 72 69 65 63 62 63 63 63 63 62 61 62 64 64 61 58 57 57 57 55 53 52 52 53 53 52 51 51 51 51 50 48 47 46 46 45 45 44 44 43 42 41 41 42 42 42 42 42 43 43 44 47 48 49 50 50 49 48 48
74 80 85 87 89 91 92 92 93 93 95 98 97 93 90 90 91 93 96 97 95 95 93 91 90 90 90 90 88 85 83 82 82 82 81 80 77 76 75 71 68 66 66 66 65 63 62 61 60 61 62 61 59 57 56 57 57 55 53 51 51 51 52 50 49 49 50 49 48 47 47 46 45 45 44 44 43 42 42 42 42 42 43 43 43 44 44 44 46 48 49 50 50 49 47 46 46
67 76 82 84 85 88 91 93 93 93 96 97 95 94 89 87 91 96 98 98 97 97 95 93 94 93 92 92 91 87 84 83 83 83 83 82 80 78 77 75 72 70 70 68 65 63 63 62 61 61 61 60 57 56 55 56 56 54 52 50 48 49 50 49 47 48 48 47 47 46 46 46 45 44 43 43 42 42 42 42 43 44 44 44 44 45 45 46 47 48 48 49 48 45 45 45 46
61 68 74 78 82 85 88 92 94 94 94 92 92 95 90 86 92 99 101 99 97 97 98 97 97 97 95 95 94 91 87 84 84 83 83 83 82 80 80 78 76 74 71 69 67 65 64 62 61 61 61 59 57 55 55 55 55 53 51 49 47 48 50 48 46 46 46 45 45 45 46 46 45 44 43 42 42 42 42 42 44 44 45 46 46 46 46 47 47 48 47 45 43 42 43 45 45
57 61 65 70 75 80 84 88 90 93 90 86 89 95 93 88 93 99 101 100 98 98 99 99 99 99 97 97 96 94 91 87 85 84 83 83 83 83 82 80 78 77 74 71 69 66 64 62 62 62 61 58 57 56 55 54 53 53 52 48 46 49 49 46 44 45 45 44 44 45 46 45 44 43 42 41 42 42 43 44 45 45 46 47 47 47 47 47 48 47 42 39 40 43 45 45 44
55 58 61 64 68 72 78 82 86 88 83 81 89 99 99 90 88 95 100 99 98 98 98 99 100 101 100 99 98 98 95 90 87 85 84 83 83 83 84 81 79 78 75 73 70 67 65 64 63 62 60 58 57 56 55 54 54 54 52 47 47 48 47 45 45 44 44 44 44 45 45 45 44 42 42 42 43 43 44 45 45 45 46 47 47 47 45 45 44 40 38 40 44 46 46 45 43
52 56 59 62 64 67 71 74 79 81 79 82 92 100 100 89 84 92 99 99 99 99 99 100 101 102 102 102 101 100 98 93 89 86 84 83 82 82 83 82 80 78 75 73 71 68 67 66 64 62 60 59 58 57 56 56 56 55 51 47 48 48 47 46 46 45 45 44 44 45 45 45 44 43 43 43 44 44 45 45 45 46 46 47 47 43 39 38 38 38 43 47 47 46 46 43 42
46 51 56 59 61 63 64 67 72 76 78 84 90 93 94 87 81 87 95 98 101 101 100 101 101 102 104 104 103 102 100 97 92 88 85 83 82 81 82 81 80 78 76 74 73 71 69 68 65 63 61 60 59 58 58 58 58 55 50 48 49 49 48 47 46 46 45 45 45 45 45 45 44 44 44 45 45 46 46 46 46 46 45 46 45 38 34 37 39 43 47 48 46 46 44 41 41
40 45 50 53 57 60 62 64 69 72 74 78 82 84 86 82 79 83 91 97 101 101 99 99 101 101 102 104 105 103 102 100 95 91 86 84 82 82 82 81 78 77 77 76 74 73 71 69 66 64 63 61 59 59 60 60 60 55 50 49 49 49 48 47 47 46 46 46 46 45 45 45 45 45 45 46 47 47 48 47 47 46 45 45 43 38 36 39 42 45 46 45 45 44 41 40 41
36 38 42 46 53 59 60 62 65 68 68 69 73 77 78 77 78 82 87 92 97 98 96 97 99 100 100 103 105 105 104 102 99 95 90 86 83 82 82 81 78 76 76 76 75 73 72 70 67 66 63 61 60 61 61 62 61 55 51 50 49 48 47 47 47 48 47 47 46 46 46 46 46 46 47 48 48 49 48 48 47 46 44 43 41 39 39 41 42 43 44 45 44 42 40 41 41
34 34 37 41 47 51 53 56 60 62 61 60 65 71 72 74 75 78 84 89 92 94 95 95 97 99 101 102 104 107 107 105 102 98 93 88 84 82 82 81 78 75 75 75 74 72 71 70 69 67 64 61 60 61 63 63 61 55 51 50 49 47 46 46 47 48 48 47 47 47 47 47 47 47 48 49 49 49 49 47 46 45 42 40 39 38 38 39 40 42 44 44 42 41 41 41 41
31 32 33 36 39 42 44 49 54 57 56 56 60 62 65 69 70 73 83 88 89 91 93 95 97 100 103 104 106 108 109 108 105 101 96 91 86 83 82 81 78 74 73 72 72 71 70 70 69 67 64 62 61 64 65 65 60 54 51 49 48 47 46 46 48 49 49 48 48 48 48 48 48 49 49 49 49 49 48 46 44 43 41 39 38 36 36 38 40 42 42 41 40 40 40 40 41
27 29 30 31 33 36 38 41 46 50 50 51 55 57 61 66 67 72 82 85 86 88 90 94 98 102 106 107 108 109 109 108 107 103 98 92 87 84 82 80 78 74 72 71 70 70 69 68 67 65 64 63 65 67 67 64 58 53 51 49 48 48 48 48 49 50 50 49 49 49 49 49 49 49 49 49 49 48 46 44 43 41 39 38 36 36 36 38 40 40 39 38 39 39 38 38 39
22 24 27 28 29 30 33 36 38 41 43 45 51 55 60 64 66 71 77 79 82 86 90 96 101 105 106 106 108 109 107 106 106 104 100 94 88 85 82 80 78 75 72 70 69 68 66 65 64 63 63 64 67 68 67 62 57 54 51 50 50 50 51 51 51 51 51 50 50 50 50 50 50 50 49 48 47 45 44 42 41 39 37 36 36 36 37 38 38 38 37 37 37 36 36 37 39
17 19 21 23 25 26 29 32 33 36 38 41 47 53 58 61 63 67 72 76 81 87 92 98 102 105 106 104 106 107 105 104 104 103 101 95 89 86 83 81 78 75 72 70 68 66 63 62 61 60 62 65 67 67 65 60 56 54 52 51 52 52 53 53 53 52 51 51 51 51 50 50 49 48 47 46 44 43 41 39 38 37 35 35 36 36 36 36 36 36 35 35 34 35 36 38 39
14 14 16 19 21 23 25 27 28 30 33 35 40 46 52 56 58 63 71 77 82 87 93 97 101 104 104 103 104 105 104 104 103 101 100 97 91 87 85 82 79 76 72 69 67 65 62 60 58 60 62 64 64 63 60 57 55 53 52 51 52 53 53 52 52 51 50 50 50 49 49 48 47 46 44 43 42 40 38 37 35 34 34 34 34 34 34 34 34 34 33 33 33 35 37 38 39
Wind_Direction
240 240 239 238 237 237 238 239 240 241 242 243 243 243 243 243 243 243 242 242 243 244 245 246 247 246 245 244 244 244 243 243 243 244 244 245 245 244 244 244 244 244 243 244 245 245 247 267 269 265 266 265 266 269 268 267 269 273 275 276 277 280 282 284 289 296 305 307 308 310 312 314 315 317 319 319 320 321 321 318 318 320 320 320 321 322 322 319 315 311 307 305 304 297 289 289 292
242 241 239 238 237 237 238 238 240 241 241 242 243 243 244 243 243 243 242 242 243 244 244 245 246 247 246 246 246 245 244 243 243 244 244 245 245 243 242 242 242 243 245 244 245 246 250 266 264 257 259 261 262 266 267 266 267 271 274 274 274 277 282 286 289 295 302 305 307 310 312 314 315 316 317 317 319 322 322 320 319 320 319 320 321 322 321 319 316 313 309 306 305 300 292 288 290
243 242 241 240 238 238 238 238 240 241 241 241 243 243 243 243 242 244 243 242 243 244 244 245 246 247 247 247 246 245 244 243 243 244 244 243 243 242 241 242 241 241 246 243 240 241 251 262 258 253 253 257 260 262 264 264 264 270 274 274 274 278 283 288 290 294 300 303 306 309 312 314 315 314 314 315 318 322 321 320 320 320 320 321 322 322 321 319 317 314 310 308 305 302 296 291 289
243 243 242 241 240 238 238 238 239 241 241 241 243 243 243 242 241 243 243 242 243 244 244 244 245 245 246 246 246 246 245 242 241 242 243 242 242 241 239 241 237 234 240 237 232 227 233 253 255 254 251 253 259 260 262 261 262 273 276 273 275 280 286 291 291 293 297 300 304 307 310 313 314 313 312 313 317 320 320 320 320 320 320 321 322 322 321 318 317 314 311 309 306 301 297 295 292
243 244 243 242 241 239 238 238 239 241 241 242 243 243 243 242 240 242 243 243 243 243 244 243 244 244 242 242 243 244 243 241 240 239 240 240 240 241 239 238 231 227 233 233 230 223 224 245 252 253 251 253 260 261 261 261 264 274 276 274 278 283 289 292 292 294 296 300 303 307 309 311 312 310 310 311 314 318 319 318 319 320 320 322 322 322 320 318 316 314 311 309 307 301 297 296 295
241 242 242 241 240 240 239 238 239 241 241 242 243 242 242 242 240 241 242 243 243 244 243 242 242 242 240 238 237 237 238 238 237 236 237 238 239 240 238 236 230 226 228 228 231 227 223 232 240 245 249 253 259 262 263 261 265 273 273 276 283 286 289 291 292 296 299 302 305 308 310 311 309 307 307 308 312 315 316 316 317 319 321 323 323 323 321 318 316 313 311 309 307 303 299 296 296
240 240 241 241 240 239 239 238 239 240 241 242 242 242 242 242 240 239 242 243 243 244 243 242 242 242 241 236 232 231 233 234 234 234 235 236 236 237 235 232 228 227 227 226 230 230 225 226 233 241 246 251 257 260 262 263 268 274 273 277 284 285 285 289 294 299 303 306 309 311 311 311 307 304 303 305 309 312 311 311 314 318 321 323 324 324 321 318 315 312 310 308 307 304 301 299 297
241 241 240 241 241 240 240 239 240 241 242 242 242 242 242 242 241 239 241 243 243 243 243 242 242 242 240 236 231 229 229 229 230 230 230 233 232 231 232 231 228 227 227 227 229 231 230 231 236 243 246 249 254 257 261 264 269 275 275 277 281 281 282 288 296 301 304 308 311 312 312 309 306 302 301 303 306 307 306 307 311 316 320 323 324 324 322 319 315 311 309 308 306 304 303 302 300
242 241 240 240 241 240 240 239 239 240 241 242 242 242 242 240 240 238 239 242 241 241 241 240 241 241 238 235 233 232 231 229 228 226 225 229 228 224 227 232 234 232 228 226 228 232 235 237 241 248 250 251 255 258 261 263 267 273 274 275 277 277 280 288 297 300 303 307 309 311 313 309 304 301 300 302 304 303 302 305 309 314 319 322 323 324 323 319 314 310 309 307 305 304 304 304 302
243 243 242 241 240 239 239 238 239 240 241 241 241 242 242 239 238 237 237 241 241 240 239 237 239 238 235 233 233 233 234 233 231 227 222 224 225 219 219 226 232 233 232 229 230 234 237 241 245 249 251 253 257 258 260 263 268 272 271 272 274 275 278 287 294 296 300 305 307 310 314 310 303 299 298 301 302 300 302 306 310 313 317 321 323 323 322 319 314 311 309 306 304 304 304 304 304
244 244 243 241 240 238 238 238 238 239 239 241 241 242 243 240 237 236 235 238 240 239 237 235 236 236 233 231 231 233 235 235 236 234 226 222 222 217 213 218 226 229 229 231 232 231 232 232 232 238 242 245 250 255 260 265 270 270 268 269 270 272 276 284 291 293 298 304 305 309 314 310 302 297 295 297 297 298 302 307 311 313 316 320 322 323 322 319 315 312 309 306 304 303 303 304 303
245 244 244 242 240 238 237 236 237 237 238 240 241 241 242 241 237 235 234 235 237 238 236 234 234 233 232 230 230 232 233 235 239 240 233 224 221 220 216 215 222 228 227 225 224 223 227 227 224 227 232 236 245 257 264 267 269 267 266 267 266 268 274 281 287 289 295 301 303 307 313 310 301 296 293 293 294 296 300 306 310 312 314 319 321 322 322 319 316 312 308 305 303 302 302 302 302
245 245 244 242 240 239 237 236 236 237 237 238 239 239 240 241 238 236 234 233 234 237 235 233 233 232 231 230 230 231 232 233 237 241 238 228 221 223 224 221 220 227 229 227 226 224 226 229 230 232 236 240 249 259 264 265 266 263 264 266 264 266 272 280 284 287 292 298 301 304 310 308 300 295 293 294 295 297 300 304 309 310 313 317 320 321 321 319 316 312 309 305 302 301 300 300 300
245 245 244 242 240 239 237 236 236 237 236 237 237 237 238 240 239 237 235 233 232 235 235 232 232 232 231 231 230 230 231 232 235 240 240 232 224 223 228 229 226 227 230 232 234 232 231 236 242 245 246 248 253 259 262 262 261 260 263 265 265 267 273 279 282 286 290 295 299 302 307 304 297 294 293 297 300 302 303 305 307 308 312 317 319 320 320 319 316 312 309 305 302 300 299 299 299
244 244 243 241 239 239 237 236 236 236 235 236 237 236 236 237 239 238 236 234 232 233 235 232 230 230 229 230 230 230 231 231 234 238 240 235 228 225 228 232 233 231 229 230 233 234 236 241 246 250 250 250 254 258 259 259 257 257 261 264 267 270 274 278 281 285 288 293 298 301 304 300 292 292 293 297 303 306 306 306 307 308 312 317 319 319 319 318 316 313 309 306 303 300 299 298 299
243 243 243 241 240 239 237 235 235 235 234 236 237 236 235 235 237 237 235 235 233 233 235 232 229 229 228 229 230 230 231 232 234 237 238 237 230 226 229 233 235 234 231 229 231 233 236 242 247 250 250 249 253 257 258 257 254 255 260 265 269 272 274 277 279 283 286 291 297 299 301 295 286 288 291 297 305 308 306 305 306 308 312 317 318 318 318 317 316 313 310 307 304 301 298 298 298
242 242 242 241 240 239 237 235 233 232 231 233 236 237 235 234 236 236 235 235 234 234 235 232 229 228 228 229 229 230 231 232 234 235 237 237 231 228 231 234 234 235 233 231 231 235 238 242 246 248 248 249 253 256 256 255 252 253 260 266 272 274 275 276 278 282 284 290 295 297 299 291 282 286 291 297 304 309 308 305 306 309 313 316 318 318 318 317 316 314 311 308 305 301 298 298 298
242 241 240 239 238 237 235 234 232 230 229 231 235 237 237 235 235 235 234 234 234 234 235 233 229 228 228 229 229 230 230 232 234 234 234 235 232 231 233 234 235 236 236 234 232 235 239 243 246 247 247 249 253 255 254 253 251 254 261 268 273 274 274 274 276 280 283 289 292 294 297 288 280 286 292 297 303 308 309 308 308 311 314 316 317 317 317 317 315 314 311 309 307 302 299 298 298
241 241 239 237 236 235 234 234 233 231 230 231 234 237 238 237 237 235 234 234 234 235 236 234 230 229 229 229 230 231 231 231 233 231 229 230 230 232 235 236 237 237 237 236 234 234 238 241 242 243 246 250 253 253 253 252 253 258 265 271 274 273 271 271 274 278 282 287 289 291 294 287 283 288 293 297 302 307 308 308 309 311 313 314 316 316 317 316 315 313 312 310 308 303 300 299 299
241 240 239 236 235 234 233 233 234 233 231 230 232 235 237 237 238 236 235 235 235 235 237 236 231 229 230 230 230 231 231 230 231 230 227 228 228 230 234 237 239 239 238 238 236 235 237 240 241 242 246 251 254 254 254 256 259 264 268 271 271 270 268 269 273 277 281 284 286 288 290 286 286 290 295 299 302 306 308 307 308 309 311 313 315 316 316 316 315 313 312 311 308 305 302 301 300
240 240 238 236 234 234 232 232 233 233 232 231 231 234 235 235 237 238 236 235 235 235 236 237 233 229 228 230 230 229 230 230 228 228 227 227 228 228 231 235 239 241 240 238 237 236 237 240 243 245 248 252 254 256 259 261 263 265 267 268 267 267 267 269 272 276 279 282 284 287 288 285 285 289 295 302 305 307 308 307 307 308 309 312 314 316 317 316 314 313 312 311 308 306 305 303 302
241 240 238 235 234 233 232 231 231 232 232 231 231 232 234 235 235 236 235 234 234 234 234 236 235 231 228 229 229 228 229 230 229 227 227 227 228 228 229 231 235 239 240 237 236 236 237 238 242 246 250 253 255 257 260 262 263 263 264 264 264 265 266 269 272 275 277 281 284 286 287 285 284 287 293 302 308 309 309 308 307 306 308 311 314 316 317 316 314 313 311 310 309 307 306 304 302
241 240 238 236 234 233 232 231 230 231 231 231 231 232 234 235 235 235 235 233 233 234 233 234 236 234 232 230 229 229 229 230 230 228 227 227 228 229 230 229 230 234 236 236 235 236 237 238 242 246 249 251 254 256 259 260 261 261 261 261 262 264 266 269 271 273 275 280 284 285 288 286 284 287 292 300 309 311 310 308 306 305 308 312 314 316 316 316 314 312 311 309 309 307 306 304 303
240 239 238 236 234 233 232 231 230 230 230 230 231 232 234 235 236 236 235 233 233 234 234 232 233 234 235 233 230 229 230 230 230 228 227 228 227 228 230 229 229 231 233 234 236 237 239 240 242 245 248 250 253 255 258 259 259 258 258 259 261 263 266 268 269 271 275 280 283 285 287 286 284 287 292 300 309 311 310 308 305 304 309 313 314 316 316 315 313 311 310 309 309 307 306 305 304
239 239 238 237 235 233 232 231 230 229 229 229 230 231 233 234 235 236 235 234 233 233 233 231 230 231 233 234 232 230 230 230 229 228 228 228 226 226 228 229 229 231 231 232 235 238 241 242 243 246 249 252 254 256 257 257 257 255 255 257 260 263 265 267 268 271 275 280 283 285 286 285 284 287 292 300 309 310 309 308 303 303 309 313 315 316 315 314 312 310 309 309 309 308 306 305 305
239 238 238 237 235 233 232 231 230 229 229 229 229 230 231 233 234 235 234 233 233 233 233 232 230 229 230 232 233 231 230 229 228 227 227 227 225 224 226 228 228 230 231 232 233 236 240 243 245 247 250 252 255 256 255 254 255 255 255 257 260 263 264 266 269 272 276 280 282 284 285 284 284 288 293 301 308 310 309 307 302 302 307 312 315 315 314 312 311 310 309 310 309 308 306 305 305
240 238 237 236 235 233 232 231 231 230 229 228 228 228 229 230 232 233 235 235 235 234 233 233 232 230 230 231 232 230 229 229 228 226 227 226 224 223 225 227 229 230 231 233 234 236 239 242 244 247 249 252 255 256 255 254 255 256 256 259 261 263 264 267 271 274 276 278 280 283 283 282 284 288 295 302 306 308 308 305 302 301 305 310 314 314 313 311 310 309 309 310 309 308 306 305 305
240 239 237 236 234 233 232 231 231 230 229 228 228 227 228 229 229 231 236 236 235 235 233 232 232 231 230 231 232 229 227 229 229 227 227 227 227 225 225 228 230 230 230 231 234 236 240 243 244 245 249 252 253 255 256 256 256 257 257 259 261 262 264 267 271 273 274 276 279 282 281 280 283 289 296 300 303 306 306 304 303 301 302 308 312 313 311 310 309 309 309 310 309 307 306 305 305
240 239 238 237 235 233 232 231 231 231 230 229 228 227 227 228 227 229 234 235 234 234 232 231 231 231 230 230 232 231 227 228 229 228 227 228 229 228 228 230 231 231 230 230 232 235 238 243 245 247 250 251 250 251 254 254 255 256 257 258 259 262 264 267 269 270 272 276 279 281 280 280 284 290 295 298 301 304 303 304 304 302 302 305 309 311 310 309 308 308 309 309 309 307 305 305 305
239 239 238 238 236 234 232 231 231 231 231 230 229 226 225 227 225 227 232 234 234 234 232 230 229 229 230 230 232 232 230 228 228 228 228 229 230 230 231 232 231 232 231 230 231 233 236 242 245 248 251 250 248 249 251 252 253 254 256 257 259 262 264 266 267 269 272 276 279 281 281 283 286 290 294 297 300 302 301 303 305 303 302 305 308 310 310 308 308 307 308 308 308 306 305 305 305
238 237 237 237 237 235 234 232 231 231 230 230 230 226 224 225 224 226 229 232 235 234 232 231 229 228 229 230 231 232 232 230 229 227 227 228 230 229 231 231 231 232 232 231 231 233 235 240 245 249 251 249 247 249 251 252 252 254 255 256 259 261 263 264 266 270 274 278 280 281 282 284 287 290 294 297 299 300 300 303 305 302 302 305 308 309 309 307 306 306 307 308 307 306 306 306 306
237 237 236 236 237 236 234 233 232 231 230 230 230 226 223 223 224 226 228 230 234 235 233 231 230 228 228 229 230 231 233 232 231 229 228 228 229 230 230 231 231 231 232 232 233 234 236 238 245 250 250 247 245 248 253 254 254 254 255 257 258 260 263 265 268 272 275 278 280 281 282 285 288 291 294 296 298 298 299 303 304 301 303 305 308 309 308 306 305 305 307 307 306 306 306 307 308
237 237 236 235 236 236 235 234 233 232 230 229 229 225 223 224 224 226 228 229 232 234 234 232 231 229 227 228 230 231 232 233 233 233 232 230 230 230 230 230 231 232 232 233 234 236 237 239 243 247 248 246 244 248 254 256 256 256 256 257 259 261 264 267 271 274 276 278 279 281 283 286 289 292 294 295 296 297 300 303 302 301 303 306 307 308 306 305 304 304 306 306 305 306 307 308 309
236 235 235 234 235 235 235 235 234 234 232 230 228 224 223 225 225 226 227 228 230 233 235 234 232 230 228 227 228 230 231 233 234 234 234 234 233 232 232 231 231 233 233 234 235 237 238 239 242 243 243 244 244 248 252 255 257 257 256 258 260 263 266 269 272 274 276 277 279 281 284 287 290 292 293 295 296 298 301 303 301 301 304 306 307 306 305 304 303 304 306 306 305 307 308 309 310
237 236 235 234 235 235 235 235 235 234 234 232 229 224 222 225 226 226 227 228 229 231 234 235 233 231 229 228 227 229 230 231 233 233 233 234 234 234 235 234 233 234 235 236 237 238 238 240 242 239 239 242 244 247 249 251 254 255 255 258 262 265 267 269 271 273 275 276 279 281 284 287 290 291 293 295 296 298 302 303 301 302 304 305 306 305 304 303 302 304 305 304 304 307 309 310 311
238 238 236 235 235 235 235 236 235 234 233 232 231 226 223 224 225 227 227 227 228 229 233 235 234 232 230 228 227 228 229 229 231 233 232 233 234 235 236 237 237 235 236 237 238 239 240 241 242 240 240 242 244 247 248 250 253 255 256 259 262 264 265 267 270 272 273 275 278 281 283 286 289 291 292 294 296 298 302 302 301 302 304 305 304 304 303 302 302 304 304 302 303 308 310 311 311
240 239 238 236 235 235 235 236 235 235 233 232 231 228 224 224 225 226 227 227 226 227 231 234 235 233 230 228 226 227 228 228 230 232 232 232 233 235 236 238 239 238 238 239 239 239 240 241 241 241 241 243 244 246 247 250 254 257 259 261 262 263 264 266 269 270 270 273 277 280 282 285 288 290 291 293 294 297 301 302 301 302 303 304 303 303 302 301 301 302 302 301 303 308 310 311 311
240 239 238 237 236 235 235 235 235 235 233 231 231 228 225 225 225 225 226 227 226 227 229 232 235 234 231 229 226 225 227 227 229 231 232 232 233 234 235 237 238 239 240 239 239 239 240 240 241 241 242 242 244 245 247 250 253 256 258 261 262 263 264 265 267 267 268 272 275 279 281 283 286 288 290 292 293 297 300 301 300 301 302 303 303 302 301 300 300 300 299 299 303 307 309 310 310
239 239 238 237 236 235 235 235 235 235 233 231 230 228 225 226 226 226 226 226 226 227 228 230 234 235 232 229 227 225 225 227 228 230 231 232 233 233 234 235 236 238 240 240 240 240 240 240 241 242 242 243 244 245 246 248 250 253 255 258 261 263 264 265 266 265 268 271 274 278 281 282 284 286 288 290 293 296 299 299 298 300 301 301 302 303 302 300 298 297 297 298 303 306 309 310 309
239 239 238 237 237 235 235 235 235 235 234 231 230 228 225 225 226 226 226 225 225 227 227 228 232 235 234 230 228 226 224 225 227 229 230 231 232 233 233 233 234 236 238 240 240 240 240 239 240 241 242 243 244 245 246 246 248 251 254 256 258 260 262 263 264 265 268 270 274 278 279 281 283 285 287 289 292 295 297 297 297 300 300 300 303 305 302 299 297 296 297 299 303 306 308 309 309
239 238 238 237 237 236 235 234 235 235 234 232 231 229 225 224 225 226 226 225 224 225 227 228 230 233 235 232 229 227 225 224 226 228 229 230 230 231 233 232 232 234 236 238 239 239 238 237 238 239 240 243 244 245 246 247 249 251 253 254 255 257 259 262 263 265 267 270 273 276 278 280 282 283 286 288 291 294 296 296 297 298 299 299 302 301 293 290 291 294 297 300 303 306 307 308 309
240 239 238 237 237 237 235 235 235 235 234 233 232 229 225 224 225 225 226 225 224 225 226 227 229 231 234 234 230 227 225 224 224 227 229 229 229 230 231 231 232 233 235 236 237 237 238 237 237 239 240 243 245 245 247 248 250 251 252 253 254 256 258 260 262 263 266 269 272 275 277 278 280 282 285 288 291 293 294 295 296 297 297 298 299 296 290 287 288 291 296 300 303 305 307 308 308
242 241 240 238 238 237 237 236 235 235 234 234 233 230 226 225 226 226 226 226 224 225 225 226 228 230 232 234 232 228 225 224 223 225 227 228 228 229 229 230 231 232 233 234 234 235 237 238 239 239 240 243 245 246 248 250 251 251 252 252 253 255 258 259 261 262 265 268 271 273 275 277 279 282 286 288 290 292 292 293 294 295 297 297 297 296 294 292 292 294 297 299 302 304 306 307 308
243 243 243 241 240 239 238 238 237 235 234 234 234 232 227 224 226 227 226 226 224 224 225 225 227 229 231 233 233 230 226 224 223 223 226 227 227 228 229 228 229 230 231 232 233 234 236 237 238 239 241 244 246 246 248 250 251 252 253 253 254 256 259 260 261 262 265 267 270 272 274 276 279 283 286 288 289 290 291 292 293 295 296 296 295 295 295 295 295 295 297 299 301 304 305 307 309
239 240 241 242 241 240 239 239 238 236 235 234 234 233 228 222 224 227 226 225 223 223 224 224 225 227 228 231 232 231 228 224 223 223 224 225 225 227 228 227 227 228 230 231 233 233 234 235 236 237 240 243 245 246 248 250 252 255 256 256 257 258 259 260 261 263 265 267 269 271 274 277 280 283 285 286 287 288 290 291 293 295 296 295 295 295 295 295 295 295 298 301 302 304 306 309 311
238 238 239 240 240 240 240 239 239 238 236 234 234 234 230 222 221 226 226 225 223 222 222 222 224 225 226 229 231 231 229 225 223 222 223 224 225 225 226 226 226 227 228 230 231 232 233 235 236 237 239 241 244 246 248 250 253 256 257 257 257 257 258 260 261 263 265 267 269 271 274 277 280 282 283 284 285 287 290 291 293 294 294 295 295 296 296 296 296 298 300 302 302 305 309 311 312
240 239 238 238 238 238 238 239 239 238 237 235 235 236 233 223 220 224 226 225 223 221 221 221 222 224 225 227 229 230 229 226 224 222 222 223 224 224 225 226 226 227 227 228 230 232 233 235 236 238 239 241 243 245 247 249 251 253 255 255 255 256 258 261 262 263 265 268 270 272 274 276 279 280 282 283 284 287 290 292 293 293 293 295 295 297 299 300 300 300 301 301 304 309 312 311 311
240 240 239 238 237 236 236 237 238 238 237 235 235 236 234 226 218 222 226 225 223 221 221 221 221 223 224 225 227 229 230 228 225 222 221 222 223 224 225 225 226 227 227 228 230 231 233 235 236 238 240 241 242 244 245 246 247 249 252 254 254 256 259 261 263 264 266 268 270 271 273 275 277 279 280 282 284 287 289 291 292 292 293 294 295 301 304 303 301 300 300 302 306 310 311 309 309
239 239 238 238 237 235 235 235 236 236 234 233 234 235 235 228 219 221 224 225 225 222 220 220 220 220 222 224 225 228 229 229 227 224 222 221 223 224 225 225 226 227 228 228 229 230 232 234 236 238 240 242 243 244 245 245 246 248 250 252 253 256 258 260 262 264 266 268 269 270 272 274 276 278 279 281 284 287 288 290 290 290 292 293 297 303 301 294 294 296 299 302 304 307 308 307 307
240 239 238 238 239 238 236 235 234 233 231 231 232 233 234 230 223 223 224 224 225 223 219 219 220 219 220 223 224 226 228 228 227 225 223 221 222 224 226 225 225 226 227 228 228 229 231 233 235 237 239 241 243 244 245 246 247 248 249 251 253 255 257 259 261 264 266 267 268 270 272 273 275 277 279 281 284 286 288 288 289 289 290 291 296 298 290 284 287 292 297 300 302 304 306 305 306
244 241 239 238 239 239 237 235 234 232 229 229 231 232 232 230 225 224 225 225 225 224 221 219 219 219 219 221 224 225 226 228 227 226 224 222 221 223 225 225 224 225 226 227 227 228 230 232 234 236 238 240 242 243 244 245 247 248 249 250 252 255 257 260 262 264 265 267 268 270 271 273 275 277 280 282 284 286 287 287 288 288 289 290 292 291 285 284 286 290 295 299 301 303 304 304 306
253 246 241 237 236 237 236 236 235 234 230 227 228 230 231 229 226 223 223 224 225 225 223 220 219 220 219 220 222 224 225 227 227 226 224 222 221 221 224 225 224 224 225 227 227 228 230 231 233 234 236 238 240 242 243 245 247 248 249 250 252 255 257 260 262 264 265 266 267 268 270 272 275 278 281 283 284 285 286 286 287 287 288 290 290 288 286 285 285 288 294 299 301 303 303 305 307
258 253 246 240 237 238 237 237 239 239 236 231 229 228 228 227 225 223 222 222 223 223 222 222 220 219 219 220 221 222 224 225 226 225 223 222 220 220 223 224 223 223 225 226 227 228 229 230 231 233 234 236 239 241 243 245 246 247 248 250 252 254 255 258 261 263 264 265 266 268 270 273 276 279 281 282 284 284 285 285 286 286 287 287 286 286 286 286 287 290 295 299 301 303 304 307 309
259 257 252 246 243 241 238 235 237 238 236 233 231 228 226 225 222 221 222 220 220 220 220 220 220 219 219 218 220 221 222 223 225 225 224 221 220 220 221 223 223 221 223 225 226 227 228 229 231 232 233 235 237 239 241 243 245 246 248 249 251 252 253 255 258 261 263 265 266 268 271 275 277 279 280 281 282 283 284 284 285 285 286 285 284 284 284 285 289 293 296 299 301 304 307 309 310
259 258 256 251 247 244 241 237 235 236 233 229 230 227 225 222 218 218 220 218 218 218 217 218 219 219 218 217 218 220 220 222 223 224 224 222 220 220 220 222 222 221 221 223 225 226 227 228 230 231 232 233 236 237 240 242 244 245 246 248 249 251 252 254 256 259 262 264 267 270 273 275 277 278 278 279 280 281 282 283 284 284 284 283 283 283 284 286 291 294 297 299 302 305 307 309 310
263 259 256 254 250 245 242 240 236 234 230 225 224 223 223 221 216 216 218 217 216 217 216 216 217 218 218 216 217 219 220 220 222 223 223 222 219 219 220 221 222 221 220 221 224 225 226 227 229 230 231 233 235 238 240 242 243 244 245 246 248 249 251 253 256 258 261 265 268 270 273 274 275 276 277 278 279 280 280 281 281 282 282 281 281 283 285 288 291 294 297 300 302 304 307 308 310
273 264 259 255 252 247 242 240 238 234 229 223 220 220 221 221 216 214 216 215 214 215 215 214 215 216 217 216 216 218 219 220 221 222 222 221 219 218 219 220 221 220 219 219 222 223 224 226 227 229 230 232 235 238 240 242 243 244 245 246 247 249 251 253 256 259 262 265 267 269 271 273 273 274 275 276 277 278 278 278 279 279 279 280 280 282 285 287 290 294 297 299 302 304 306 307 310
286 273 264 257 252 248 244 240 238 236 232 225 220 218 219 219 216 214 215 214 213 214 214 214 214 215 216 215 215 216 218 219 220 221 222 221 219 218 218 219 220 220 218 218 220 222 222 224 225 227 229 231 235 238 241 242 243 244 245 246 247 249 251 254 256 259 261 263 265 267 269 270 271 272 273 274 274 275 276 276 276 276 276 277 279 282 285 288 291 293 295 299 302 304 306 308 311